Location: Beekmeers
(50.8953°N, 3.6968°E)
Time: 04:52:15
(UTC+00:00)

Cosmos 968 Rocket - Pass Details

Date: 23 May 2024
Orbit: 738 x 769 km, 74.0° (Epoch: 19 June)

Event Time Altitude Azimuth Distance (km) Brightness Sun altitude
Exits shadow 02:02:16 15° 192° (SSW) 1,926 5.0 -12.1°
Maximum altitude 02:06:30 71° 111° (ESE) 787 3.6 -11.7°
Drops below altitude 10° 02:11:36 10° 28° (NNE) 2,272 7.5 -11.3°
Sets 02:13:59 0° 26° (NNE) 3,205 8.7 -11.0°
